Location: Burla
(50.9568°N, 10.4983°E)
Time: 19:43:34
(UTC+00:00)

Lacrosse 4 Rocket - Pass Details

Date: 18 January 2026
Orbit: 512 x 564 km, 68.0° (Epoch: 15 February)

Event Time Altitude Azimuth Distance (km) Brightness Sun altitude
Exits shadow 04:57:42 - 197° (SSW) 2,699 4.8 -20.6°
Rises 04:57:49 0° 197° (SSW) 2,650 4.7 -20.5°
Reaches altitude 10° 05:00:03 10° 191° (S) 1,758 3.9 -20.2°
Maximum altitude 05:03:48 45° 118° (ESE) 718 2.3 -19.6°
Drops below altitude 10° 05:07:32 10° 46° (NE) 1,752 4.3 -19.0°
Sets 05:09:45 0° 40° (NE) 2,640 5.2 -18.7°
